COSMOS 1867 COOLANT

Satellite information

Favourite Embed

Satellite Type and Status

DEBRISIN ORBIT

Key statistics

Satellite COSMOS 1867 COOLANT at a glance.

Uptime

14037

Days in orbit

Revolutions

≈ 14.3

Per day

Orbit

LEO

Low Earth Orbit

Inclination

65.0

Latest

Satellite identification and parameters

Extended collection of information and parameters for COSMOS 1867 COOLANT.

Object identification

Identified? True

Debris? False

Object name: COSMOS 1867 COOLANT

International designator: 1987-060U

Object number (NORAD): 39657

Object ID (CCSDS): 39657

Country: COMMONWEALTH OF INDEPENDENT STATES (CIS)

Current information (Y/N): Y

RCS size: SMALL

Orbital parameters

Period: 100.435 minutes

Inclination: 65.0055 deg

SMA: 7157.31 km

Apoapsis: 788.599 km

Periapsis: 769.751 km

RAAN: 172.3771 deg

Eccentricy: 0.00131667

Argument of periapsis: 268.1504 deg

Mean anomaly: 91.8074 deg

Mean motion: 14.33765223 rev/day

Mean motion (dot): 0.00000487 rev/day2

B* drag term: 0.00021074459 1/REarth

Two-line elements (TLE)

Creation date: Dec. 13, 2025, 4:32 a.m.

Reference frame: TEME

Reference center: EARTH

Epoch: Dec. 13, 2025, 12:10 a.m. UTC

TLE line 0: 0 COSMOS 1867 COOLANT

TLE line 1: 1 39657U 87060U 25347.00738254 .00000487 00000-0 21074-3 0 9997

TLE line 2: 2 39657 65.0055 172.3771 0013167 268.1504 91.8074 14.33765223609982

Live tracking on map

Real-time ground track for satellite COSMOS 1867 COOLANT.

In-orbit conjunctions

A list of the most updated potential collisions computed for object COSMOS 1867 COOLANT.

Target Orbit TCA Probability of collision Miss distance Type
FENGYUN 1C DEB SSO 2025-09-22 23:12:19 0.0001604206 63.0 (m) DEBRIS
CZ-6A DEB LEO 2024-11-26 07:58:30 0.0001708551 718.0 (m) DEBRIS
CZ-6A DEB SSO 2024-11-02 05:51:52 0.0001228348 127.0 (m) DEBRIS
COSMOS 2056 LEO 2024-07-05 14:36:01 0.0001231452 108.0 (m) PAYLOAD

Associated space launch

Nuclear-powered magnetospheric research satellite

COSMOS 1867 COOLANT was lifted into orbit during the mission ‘Tsiklon-2 | Plasma-A 2’, on board a Tsiklon-2 space rocket.

The launch took place on July 10, 1987, 3:35 p.m. from 90.

For more information about the launch, click the button.

Launch to space Tsiklon-2 | Plasma-A 2
Tsiklon-2 | Plasma-A 2

Agency: N/A

Status: Launch Successful

Launch date: July 10, 1987, 3:35 p.m. UTC

Rocket: Tsiklon-2

Launch pad: 90

Location: Baikonur Cosmodrome, Republic of Kazakhstan

...

Latest news about this satellite

There are no fresh news available about this satellite. Check back as we update our databases every day.


Newsletter sign-up

Weekly statistics, charts and insights to help you stay on top of the space industry.